When you browse on this site, cookies collect data to enhance your experience and personalize the content and advertising you see.
Visit our Privacy Policy to learn more. By continuing to use the site, you agree to this use of cookies and data.
  • In Österreich
  • Länderverzeichnis
  • Für 7 Tage
  • Wassertemperatur
  • Wetterkarte
  • News
  • Widgets
  • user-avatar
    Anmelden

    Stündliche Wetter Santiago del Estero

    Heute, 6 Dezember, Freitag

    Zeit Temperatur Niederschläge Wind Luftdruck Luftfeuchtigkeit
    00:00 +21°C° 0 mm 2 m/S 741 mmHg 35%
    01:00 +20°C° 0 mm 2 m/S 741 mmHg 39%
    02:00 +20°C° 0 mm 2 m/S 741 mmHg 42%
    03:00 +19°C° 0 mm 2 m/S 741 mmHg 44%
    04:00 +19°C° 0 mm 2 m/S 741 mmHg 46%
    05:00 +18°C° 0 mm 2 m/S 741 mmHg 48%
    06:00 +20°C° 0 mm 3 m/S 742 mmHg 46%
    07:00 +23°C° 0 mm 4 m/S 743 mmHg 44%
    08:00 +26°C° 0 mm 4 m/S 743 mmHg 42%
    09:00 +28°C° 0 mm 4 m/S 743 mmHg 39%
    10:00 +30°C° 0 mm 4 m/S 743 mmHg 36%
    11:00 +33°C° 0 mm 4 m/S 742 mmHg 33%
    12:00 +34°C° 0 mm 4 m/S 742 mmHg 30%
    13:00 +35°C° 0 mm 3 m/S 741 mmHg 27%
    14:00 +36°C° 0 mm 3 m/S 741 mmHg 24%
    15:00 +37°C° 0 mm 3 m/S 740 mmHg 24%
    16:00 +37°C° 0 mm 3 m/S 740 mmHg 23%
    17:00 +37°C° 0 mm 3 m/S 739 mmHg 22%
    18:00 +34°C° 0 mm 3 m/S 739 mmHg 25%
    19:00 +31°C° 0 mm 3 m/S 740 mmHg 27%
    20:00 +28°C° 0 mm 3 m/S 740 mmHg 30%
    21:00 +27°C° 0 mm 3 m/S 740 mmHg 30%
    22:00 +27°C° 0 mm 3 m/S 741 mmHg 30%
    23:00 +26°C° 0 mm 3 m/S 741 mmHg 30%

    Morgen, 7 Dezember, Samstag

    Zeit Temperatur Niederschläge Wind Luftdruck Luftfeuchtigkeit
    00:00 +25°C° 0 mm 3 m/S 740 mmHg 31%
    01:00 +24°C° 0 mm 3 m/S 740 mmHg 32%
    02:00 +24°C° 0 mm 3 m/S 740 mmHg 33%
    03:00 +22°C° 0 mm 3 m/S 740 mmHg 35%
    04:00 +22°C° 0 mm 3 m/S 740 mmHg 37%
    05:00 +21°C° 0 mm 3 m/S 740 mmHg 39%
    06:00 +23°C° 0 mm 4 m/S 740 mmHg 37%
    07:00 +26°C° 0 mm 5 m/S 740 mmHg 34%
    08:00 +28°C° 0 mm 6 m/S 741 mmHg 32%
    09:00 +30°C° 0 mm 6 m/S 740 mmHg 28%
    10:00 +33°C° 0 mm 6 m/S 740 mmHg 25%
    11:00 +36°C° 0 mm 6 m/S 740 mmHg 21%
    12:00 +38°C° 0 mm 6 m/S 739 mmHg 20%
    13:00 +39°C° 0 mm 6 m/S 739 mmHg 19%
    14:00 +40°C° 0 mm 5 m/S 738 mmHg 18%
    15:00 +40°C° 0 mm 5 m/S 737 mmHg 18%
    16:00 +40°C° 0 mm 6 m/S 737 mmHg 19%
    17:00 +39°C° 0 mm 6 m/S 736 mmHg 19%
    18:00 +36°C° 0 mm 5 m/S 736 mmHg 22%
    19:00 +34°C° 0 mm 4 m/S 737 mmHg 25%
    20:00 +32°C° 0 mm 4 m/S 737 mmHg 28%
    21:00 +30°C° 0 mm 4 m/S 737 mmHg 30%
    22:00 +30°C° 0 mm 4 m/S 738 mmHg 32%
    23:00 +29°C° 0 mm 4 m/S 738 mmHg 34%

    übermorgen, 8 Dezember, Sonntag

    Zeit Temperatur Niederschläge Wind Luftdruck Luftfeuchtigkeit
    00:00 +27°C° 0 mm 4 m/S 738 mmHg 39%
    01:00 +26°C° 0 mm 3 m/S 738 mmHg 44%
    02:00 +25°C° 0 mm 3 m/S 737 mmHg 49%
    03:00 +24°C° 0.1 mm 2 m/S 738 mmHg 49%
    04:00 +23°C° 0.1 mm 2 m/S 738 mmHg 50%
    05:00 +21°C° 0.1 mm 2 m/S 739 mmHg 50%
    06:00 +24°C° 0.1 mm 2 m/S 739 mmHg 46%
    07:00 +26°C° 0.1 mm 3 m/S 739 mmHg 41%
    08:00 +28°C° 0.1 mm 4 m/S 740 mmHg 37%
    09:00 +30°C° 0.1 mm 4 m/S 740 mmHg 34%
    10:00 +33°C° 0.1 mm 5 m/S 740 mmHg 30%
    11:00 +35°C° 0.1 mm 5 m/S 740 mmHg 27%
    12:00 +36°C° 0 mm 5 m/S 739 mmHg 26%
    13:00 +37°C° 0 mm 4 m/S 739 mmHg 26%
    14:00 +37°C° 0 mm 4 m/S 738 mmHg 25%
    15:00 +38°C° 0 mm 4 m/S 738 mmHg 24%
    16:00 +38°C° 0 mm 4 m/S 737 mmHg 24%
    17:00 +38°C° 0 mm 4 m/S 737 mmHg 23%
    18:00 +35°C° 0 mm 3 m/S 737 mmHg 27%
    19:00 +33°C° 0 mm 3 m/S 737 mmHg 31%
    20:00 +30°C° 0 mm 3 m/S 738 mmHg 35%
    21:00 +29°C° 0 mm 3 m/S 738 mmHg 37%
    22:00 +28°C° 0 mm 3 m/S 738 mmHg 38%
    23:00 +27°C° 0 mm 3 m/S 739 mmHg 40%

    9 Dezember, Montag

    Zeit Temperatur Niederschläge Wind Luftdruck Luftfeuchtigkeit
    00:00 +27°C° 0 mm 2 m/S 738 mmHg 42%
    01:00 +26°C° 0 mm 2 m/S 738 mmHg 43%
    02:00 +25°C° 0 mm 2 m/S 738 mmHg 44%
    03:00 +25°C° 0 mm 2 m/S 738 mmHg 45%
    04:00 +25°C° 0 mm 2 m/S 738 mmHg 45%
    05:00 +24°C° 0 mm 2 m/S 738 mmHg 46%
    06:00 +26°C° 0 mm 2 m/S 739 mmHg 41%
    07:00 +29°C° 0 mm 3 m/S 739 mmHg 37%
    08:00 +31°C° 0 mm 3 m/S 740 mmHg 33%
    09:00 +34°C° 0 mm 3 m/S 740 mmHg 29%
    10:00 +36°C° 0 mm 4 m/S 740 mmHg 25%
    11:00 +38°C° 0 mm 4 m/S 739 mmHg 22%
    12:00 +40°C° 0 mm 4 m/S 739 mmHg 21%
    13:00 +41°C° 0 mm 4 m/S 738 mmHg 21%
    14:00 +41°C° 0 mm 4 m/S 737 mmHg 20%
    15:00 +40°C° 0 mm 3 m/S 737 mmHg 20%
    16:00 +40°C° 0 mm 3 m/S 736 mmHg 20%
    17:00 +40°C° 0 mm 3 m/S 736 mmHg 19%
    18:00 +37°C° 0 mm 2 m/S 736 mmHg 22%
    19:00 +35°C° 0 mm 2 m/S 736 mmHg 25%
    20:00 +31°C° 0 mm 1 m/S 736 mmHg 28%
    21:00 +31°C° 0 mm 2 m/S 737 mmHg 29%
    22:00 +30°C° 0 mm 2 m/S 737 mmHg 29%
    23:00 +30°C° 0 mm 3 m/S 737 mmHg 30%

    10 Dezember, Dienstag

    Zeit Temperatur Niederschläge Wind Luftdruck Luftfeuchtigkeit
    00:00 +29°C° 0 mm 3 m/S 737 mmHg 35%
    01:00 +29°C° 0 mm 3 m/S 737 mmHg 41%
    02:00 +28°C° 0 mm 4 m/S 737 mmHg 46%
    03:00 +28°C° 0 mm 3 m/S 737 mmHg 49%
    04:00 +27°C° 0 mm 3 m/S 737 mmHg 52%
    05:00 +26°C° 0 mm 2 m/S 737 mmHg 55%
    06:00 +28°C° 0 mm 3 m/S 737 mmHg 52%
    07:00 +30°C° 0 mm 3 m/S 738 mmHg 48%
    08:00 +33°C° 0 mm 3 m/S 738 mmHg 45%
    09:00 +36°C° 0 mm 4 m/S 738 mmHg 39%
    10:00 +39°C° 0 mm 5 m/S 738 mmHg 33%
    11:00 +42°C° 0 mm 5 m/S 738 mmHg 27%
    12:00 +43°C° 0 mm 5 m/S 737 mmHg 25%
    13:00 +43°C° 0 mm 5 m/S 737 mmHg 23%
    14:00 +44°C° 0 mm 4 m/S 736 mmHg 21%
    15:00 +43°C° 0 mm 5 m/S 735 mmHg 22%
    16:00 +43°C° 0 mm 5 m/S 735 mmHg 23%
    17:00 +42°C° 0 mm 5 m/S 735 mmHg 25%
    18:00 +38°C° 0.1 mm 4 m/S 735 mmHg 30%
    19:00 +35°C° 0.1 mm 3 m/S 736 mmHg 36%
    20:00 +31°C° 0.1 mm 2 m/S 736 mmHg 41%
    21:00 +30°C° 0 mm 2 m/S 736 mmHg 45%
    22:00 +30°C° 0 mm 2 m/S 736 mmHg 48%
    23:00 +29°C° 0 mm 2 m/S 737 mmHg 51%

    11 Dezember, Mittwoch

    Zeit Temperatur Niederschläge Wind Luftdruck Luftfeuchtigkeit
    00:00 +28°C° 0 mm 2 m/S 736 mmHg 53%
    01:00 +28°C° 0 mm 2 m/S 736 mmHg 55%
    02:00 +28°C° 0 mm 2 m/S 736 mmHg 57%
    03:00 +27°C° 0 mm 2 m/S 736 mmHg 58%
    04:00 +27°C° 0 mm 2 m/S 735 mmHg 59%
    05:00 +27°C° 0 mm 2 m/S 735 mmHg 61%
    06:00 +29°C° 0 mm 3 m/S 735 mmHg 56%
    07:00 +32°C° 0 mm 4 m/S 736 mmHg 51%
    08:00 +34°C° 0 mm 5 m/S 736 mmHg 45%
    09:00 +37°C° 0 mm 5 m/S 736 mmHg 39%
    10:00 +40°C° 0 mm 6 m/S 736 mmHg 33%
    11:00 +44°C° 0 mm 6 m/S 736 mmHg 26%
    12:00 +45°C° 0 mm 6 m/S 735 mmHg 24%
    13:00 +46°C° 0 mm 6 m/S 734 mmHg 22%
    14:00 +47°C° 0 mm 6 m/S 733 mmHg 20%
    15:00 +47°C° 0 mm 5 m/S 732 mmHg 19%
    16:00 +47°C° 0 mm 5 m/S 731 mmHg 18%
    17:00 +45°C° 0 mm 4 m/S 731 mmHg 18%
    18:00 +42°C° 0 mm 3 m/S 731 mmHg 22%
    19:00 +39°C° 0 mm 2 m/S 731 mmHg 26%
    20:00 +36°C° 0 mm 2 m/S 731 mmHg 30%
    21:00 +35°C° 0 mm 2 m/S 732 mmHg 31%
    22:00 +34°C° 0 mm 2 m/S 732 mmHg 32%
    23:00 +34°C° 0 mm 2 m/S 733 mmHg 33%
    Mehr zeigen